Погода в Нижнем Зарамаге

Россия / Республика Северная Осетия — Алания     42°41′41″N   43°58′10″E
темп.,
°C
ветер,
м/с
пор.,
м/с
влажн.,
%
обл.,
%
осадки,
мм/ч
давл.,
гПа
погр.,
м
21 апреля, ср
ср2100:00+3ю5696100 0.1 1017177
03:00+2ююз4692100 0.1 1017119
06:00+3ю4590100 0.2 1016112
09:00+4ю4594100 1.9 1017315
12:00+2ююз459798 8.8 1019228
15:00+2ююв3397100 16.5 1017175
18:00+2ююз3598100 4.8 1019221
21:00+2ююз4598100 7.0 1019165
22 апреля, чт
чт2200:00+1ю349873 1.3 101981
03:00+1ю339878 2.4 101890
06:00+2ю2399100 1.6 101873
09:00+3ююз339684 4.1 1018103
12:00+4ю349068 1.8 1018395
15:00+5ююз2393100 3.4 1017343
18:00+2ююз12100100 2.1 1018165
21:00+2ю2399100 6.7 1018162
23 апреля, пт
пт2300:00+1ююз3499100 4.6 1018223
03:00−1юз3499100 7.7 1019277
06:00−2зюз2299100 3.2 1021184
09:00−1зсз1194100 4.6 1022383
12:000юз128563 0.7 1021796
15:00+2зюз23769 0.8 10211000
18:00−1юз22794 0.1 102282
21:00−4ююз4570100 0.1 102563
24 апреля, сб
сб2400:00−4ююз565263 0.0 102470
03:00−3ююз5647100 0.0 102386
06:00−1ююз567483 0.0 1021133
09:00+3ююз566760 0.0 1018741
12:00+5юз56666 0.0 1017945
15:00+6юз466167 0.0 10171123
18:00+3юз347510 0.0 1018174
21:000ююз46825 0.0 102196
25 апреля, вс
вс2500:000ююз458112 0.0 102068
03:000ююз458415 0.0 102075
06:00+1ююз44805 0.0 101983
09:00+6ю466223 0.0 1016625
12:00+10ююз475633 0.0 10131441
15:00+10ююз58545 0.1 10121573
18:00+6ююз46818 0.4 1013195
21:00+3ююз55915 0.6 101591